Location: Wanzleben
(52.0609°N, 11.4408°E)
Time: 15:23:36
(UTC+00:00)

ATLAS 3B R/B - Pass Details

Date: 18 September 2020
Orbit: 1016 x 1179 km, 63.8° (Epoch: 04 October)

Event Time Altitude Azimuth Distance (km) Brightness Sun altitude
Rises 19:30:30 0° 311° (NW) 3,804 7.1 -19.7°
Reaches altitude 10° 19:33:10 10° 316° (NW) 2,866 6.1 -20.1°
Maximum altitude 19:39:49 55° 34° (NE) 1,276 3.0 -21.0°
Enters shadow 19:42:49 33° 95° (E) 1,740 3.3 -21.4°
